FW6754 Weather Reports


Display with metric or nautical units.
time (UTC)temp
F
wind
direction
speed
MPH
gust
MPH
rain 1hr
in
rain 24hr
in
rain mn
in
humidity
%
barometer
mb
20260901190411 63 0.0 0.0 0.00 0.00 0.00 10 1022.7
20260901185412 64 0.0 0.0 0.00 0.00 0.00 10 1022.6
20260901184912 65 0.0 0.0 0.00 0.00 0.00 10 1022.4
20260901184412 65 0.0 0.0 0.00 0.00 0.00 10 1022.4
20260901183912 65 0.0 0.0 0.00 0.00 0.00 10 1022.4
20260901183412 66 0.0 0.0 0.00 0.00 0.00 10 1022.5
20260901182912 67 0.0 0.0 0.00 0.00 0.00 10 1022.4
20260901182412 67 0.0 0.0 0.00 0.00 0.00 10 1022.3
20260901181912 68 0.0 0.0 0.00 0.00 0.00 10 1022.3
20260901181412 69 0.0 0.0 0.00 0.00 0.00 10 1022.3
20260901180911 70 0.0 0.0 0.00 0.00 0.00 10 1022.3
20260901180412 70 0.0 0.0 0.00 0.00 0.00 10 1022.1
20260901175912 71 0.0 0.0 0.00 0.00 0.00 99 1022.1
20260901175412 73 0.0 0.0 0.00 0.00 0.00 92 1022.0
20260901174911 75 0.0 0.0 0.00 0.00 0.00 84 1021.8
20260901174411 79 0.0 0.0 0.00 0.00 0.00 81 1021.7
20260901173912 79 0.0 0.0 0.00 0.00 0.00 89 1021.7
20260901173412 76 0.0 0.0 0.00 0.00 0.00 85 1021.9
20260901172912 76 0.0 0.0 0.00 0.00 0.00 83 1021.8
20260901172412 76 0.0 0.0 0.00 0.00 0.00 80 1021.9
20260901171912 76 0.0 0.0 0.00 0.00 0.00 78 1021.8
20260901171412 76 0.0 0.0 0.00 0.00 0.00 71 1021.8
20260901170912 76 0.0 0.0 0.00 0.00 0.00 71 1021.7
20260901170413 76 0.0 0.0 0.00 0.00 0.00 70 1021.8
20260901165912 77 0.0 0.0 0.00 0.00 0.00 70 1021.7
20260901165412 77 0.0 0.0 0.00 0.00 0.00 69 1021.8
20260901164911 77 0.0 0.0 0.00 0.00 0.00 68 1021.7
20260901163912 77 0.0 0.0 0.00 0.00 0.00 64 1021.8
20260901163412 78 0.0 0.0 0.00 0.00 0.00 65 1021.6
20260901162411 78 0.0 0.0 0.00 0.00 0.00 64 1021.7
20260901161911 78 0.0 0.0 0.00 0.00 0.00 62 1021.8
20260901161411 78 0.0 0.0 0.00 0.00 0.00 61 1021.7
20260901160412 79 0.0 0.0 0.00 0.00 0.00 62 1021.8
20260901155412 80 0.0 0.0 0.00 0.00 0.00 60 1021.7
20260901154912 81 0.0 0.0 0.00 0.00 0.00 62 1021.8
20260901154412 80 0.0 0.0 0.00 0.00 0.00 63 1021.7
20260901153911 80 0.0 0.0 0.00 0.00 0.00 63 1021.8
20260901152911 80 0.0 0.0 0.00 0.00 0.00 63 1021.8
20260901152413 79 0.0 0.0 0.00 0.00 0.00 61 1021.8
20260901151913 80 0.0 0.0 0.00 0.00 0.00 59 1021.8
20260901151412 81 0.0 0.0 0.00 0.00 0.00 59 1021.8
20260901150911 81 0.0 0.0 0.00 0.00 0.00 61 1021.8
20260901145912 80 0.0 0.0 0.00 0.00 0.00 59 1021.9
20260901145412 80 0.0 0.0 0.00 0.00 0.00 58 1021.9
20260901144913 81 0.0 0.0 0.00 0.00 0.00 57 1021.9
20260901144411 81 0.0 0.0 0.00 0.00 0.00 58 1021.9
20260901143412 82 0.0 0.0 0.00 0.00 0.00 58 1022.0
20260901142911 82 0.0 0.0 0.00 0.00 0.00 58 1021.9
20260901141912 82 0.0 0.0 0.00 0.00 0.00 58 1022.1
20260901141412 82 0.0 0.0 0.00 0.00 0.00 58 1022.2
20260901140912 82 0.0 0.0 0.00 0.00 0.00 59 1022.2
20260901140412 82 0.0 0.0 0.00 0.00 0.00 59 1022.3
20260901135913 82 0.0 0.0 0.00 0.00 0.00 60 1022.3
20260901135412 82 0.0 0.0 0.00 0.00 0.00 62 1022.2
20260901134912 81 0.0 0.0 0.00 0.00 0.00 61 1022.3
20260901134412 81 0.0 0.0 0.00 0.00 0.00 63 1022.4
20260901133912 81 0.0 0.0 0.00 0.00 0.00 63 1022.4
20260901133412 81 0.0 0.0 0.00 0.00 0.00 63 1022.5
20260901132912 80 0.0 0.0 0.00 0.00 0.00 62 1022.5
20260901132412 81 0.0 0.0 0.00 0.00 0.00 63 1022.5
20260901131413 83 0.0 0.0 0.00 0.00 0.00 63 1022.5
20260901130912 83 0.0 0.0 0.00 0.00 0.00 66 1022.5
20260901130412 82 0.0 0.0 0.00 0.00 0.00 70 1022.7
20260901125912 80 0.0 0.0 0.00 0.00 0.00 76 1022.7
20260901125412 78 0.0 0.0 0.00 0.00 0.00 74 1022.9
20260901124912 79 0.0 0.0 0.00 0.00 0.00 74 1022.9
20260901124411 79 0.0 0.0 0.00 0.00 0.00 73 1022.9
20260901123412 81 0.0 0.0 0.00 0.00 0.00 73 1023.0
20260901122912 81 0.0 0.0 0.00 0.00 0.00 74 1023.0
20260901122411 81 0.0 0.0 0.00 0.00 0.00 80 1023.0
20260901121911 79 0.0 0.0 0.00 0.00 0.00 86 1023.2
20260901121411 78 0.0 0.0 0.00 0.00 0.00 88 1023.3
20260901120912 78 0.0 0.0 0.00 0.00 0.00 89 1023.4
20260901120412 77 0.0 0.0 0.00 0.00 0.00 92 1023.5
20260901115913 77 0.0 0.0 0.00 0.00 0.00 93 1023.5
20260901115413 77 0.0 0.0 0.00 0.00 0.00 95 1023.5
20260901114911 77 0.0 0.0 0.00 0.00 0.00 97 1023.6
20260901113911 76 0.0 0.0 0.00 0.00 0.00 10 1023.7
20260901112912 76 0.0 0.0 0.00 0.00 0.00 10 1023.8
20260901112412 75 0.0 0.0 0.00 0.00 0.00 10 1023.8
20260901111912 75 0.0 0.0 0.00 0.00 0.00 10 1023.8
20260901111412 75 0.0 0.0 0.00 0.00 0.00 10 1023.8
20260901110911 74 0.0 0.0 0.00 0.00 0.00 10 1023.9
20260901110411 74 0.0 0.0 0.00 0.00 0.00 10 1024.0
20260901105912 74 0.0 0.0 0.00 0.00 0.00 10 1024.0
20260901105412 73 0.0 0.0 0.00 0.00 0.00 10 1024.1
20260901104912 73 0.0 0.0 0.00 0.00 0.00 10 1024.2
20260901104413 73 0.0 0.0 0.00 0.00 0.00 10 1024.2
20260901103912 73 0.0 0.0 0.00 0.00 0.00 10 1024.1
20260901103413 73 0.0 0.0 0.00 0.00 0.00 10 1024.2
20260901102912 72 0.0 0.0 0.00 0.00 0.00 10 1024.3
20260901102412 72 0.0 0.0 0.00 0.00 0.00 10 1024.3
20260901101411 73 0.0 0.0 0.00 0.00 0.00 10 1024.3
20260901100412 72 0.0 0.0 0.00 0.00 0.00 10 1024.4
20260901095913 72 0.0 0.0 0.00 0.00 0.00 10 1024.4
20260901095411 72 0.0 0.0 0.00 0.00 0.00 10 1024.4
20260901094411 71 0.0 0.0 0.00 0.00 0.00 10 1024.5
20260901093911 71 0.0 0.0 0.00 0.00 0.00 10 1024.5
20260901093412 70 0.0 0.0 0.00 0.00 0.00 10 1024.5
20260901092912 70 0.0 0.0 0.00 0.00 0.00 10 1024.6
20260901092411 70 0.0 0.0 0.00 0.00 0.00 10 1024.6
20260901091911 70 0.0 0.0 0.00 0.00 0.00 10 1024.7
20260901090912 69 0.0 0.0 0.00 0.00 0.00 10 1024.6
20260901090412 68 0.0 0.0 0.00 0.00 0.00 10 1024.7
20260901085412 68 0.0 0.0 0.00 0.00 0.00 10 1024.6
20260901084912 68 0.0 0.0 0.00 0.00 0.00 10 1024.6
20260901084413 68 0.0 0.0 0.00 0.00 0.00 10 1024.6
20260901083913 67 0.0 0.0 0.00 0.00 0.00 10 1024.7
20260901083412 67 0.0 0.0 0.00 0.00 0.00 10 1024.8
20260901082911 66 0.0 0.0 0.00 0.00 0.00 10 1024.7
20260901081912 66 0.0 0.0 0.00 0.00 0.00 10 1024.6
20260901081413 66 0.0 0.0 0.00 0.00 0.00 10 1024.6
20260901080912 66 0.0 0.0 0.00 0.00 0.00 10 1024.6
20260901080411 65 0.0 0.0 0.00 0.00 0.00 10 1024.5
20260901075911 65 0.0 0.0 0.00 0.00 0.00 10 1024.5
20260901074912 65 0.0 0.0 0.00 0.00 0.00 10 1024.5
20260901074411 64 0.0 0.0 0.00 0.00 0.00 10 1024.4
20260901073912 63 0.0 0.0 0.00 0.00 0.00 10 1024.5
20260901073412 63 0.0 0.0 0.00 0.00 0.00 10 1024.4
20260901072912 63 0.0 0.0 0.00 0.00 0.00 10 1024.5
20260901072411 62 0.0 0.0 0.00 0.00 0.00 10 1024.6
20260901071912 62 0.0 0.0 0.00 0.00 0.00 10 1024.6
20260901071413 61 0.0 0.0 0.00 0.00 0.00 10 1024.5
20260901070912 60 0.0 0.0 0.00 0.00 0.00 10 1024.6
20260901070412 59 0.0 0.0 0.00 0.00 0.00 10 1024.6
20260901065912 59 0.0 0.0 0.00 0.00 0.00 10 1024.6
20260901065412 58 0.0 0.0 0.00 0.00 0.00 10 1024.6
20260901063911 56 0.0 0.0 0.00 0.00 0.00 10 1024.6
20260901062911 55 0.0 0.0 0.00 0.00 0.00 10 1024.7
20260901062412 55 0.0 0.0 0.00 0.00 0.00 10 1024.8
20260901061912 55 0.0 0.0 0.00 0.00 0.00 10 1024.7
20260901061412 54 0.0 0.0 0.00 0.00 0.00 10 1024.7
20260901060912 54 0.0 0.0 0.00 0.00 0.00 10 1024.7
20260901060413 54 0.0 0.0 0.00 0.00 0.00 10 1024.7
20260901055911 54 0.0 0.0 0.00 0.00 0.00 10 1024.6
20260901055411 54 0.0 0.0 0.00 0.00 0.00 10 1024.5
20260901054911 54 0.0 0.0 0.00 0.00 0.00 10 1024.4
20260901054412 54 0.0 0.0 0.00 0.00 0.00 10 1024.3
20260901053911 54 0.0 0.0 0.00 0.00 0.00 10 1024.5
20260901053411 54 0.0 0.0 0.00 0.00 0.00 10 1024.4
20260901052911 54 0.0 0.0 0.00 0.00 0.00 10 1024.3
20260901052412 54 0.0 0.0 0.00 0.00 0.00 10 1024.3
20260901051912 54 0.0 0.0 0.00 0.00 0.00 10 1024.3
20260901051412 54 0.0 0.0 0.00 0.00 0.00 10 1024.2
20260901050912 54 0.0 0.0 0.00 0.00 0.00 10 1024.2
20260901050412 54 0.0 0.0 0.00 0.00 0.00 10 1024.1
20260901045912 54 0.0 0.0 0.00 0.00 0.00 10 1024.1
20260901045412 54 0.0 0.0 0.00 0.00 0.00 10 1024.1
20260901044912 54 0.0 0.0 0.00 0.00 0.00 10 1024.1
20260901044411 54 0.0 0.0 0.00 0.00 0.00 10 1024.2
20260901043911 55 0.0 0.0 0.00 0.00 0.00 10 1024.2
20260901043411 55 0.0 0.0 0.00 0.00 0.00 10 1024.1
20260901042912 55 0.0 0.0 0.00 0.00 0.00 10 1024.2
20260901041912 55 0.0 0.0 0.00 0.00 0.00 10 1024.1
20260901041412 55 0.0 0.0 0.00 0.00 0.00 10 1024.0
20260901040912 55 0.0 0.0 0.00 0.00 0.00 10 1023.9
20260901040412 55 0.0 0.0 0.00 0.00 0.00 10 1024.0
20260901035912 55 0.0 0.0 0.00 0.00 0.00 10 1024.0
20260901035411 55 0.0 0.0 0.00 0.00 0.00 10 1024.0
20260901034912 55 0.0 0.0 0.00 0.00 0.00 10 1024.0
20260901034412 55 0.0 0.0 0.00 0.00 0.00 10 1023.9
20260901033912 55 0.0 0.0 0.00 0.00 0.00 10 1023.9
20260901033411 55 0.0 0.0 0.00 0.00 0.00 10 1024.0
20260901032411 55 0.0 0.0 0.00 0.00 0.00 10 1024.0
20260901031412 56 0.0 0.0 0.00 0.00 0.00 10 1024.0
20260901030911 56 0.0 0.0 0.00 0.00 0.00 10 1024.0
20260901030411 56 0.0 0.0 0.00 0.00 0.00 10 1024.0
20260901025912 56 0.0 0.0 0.00 0.00 0.00 10 1024.0
20260901025412 56 0.0 0.0 0.00 0.00 0.00 10 1024.1
20260901024912 56 0.0 0.0 0.00 0.00 0.00 10 1024.0
20260901024411 56 0.0 0.0 0.00 0.00 0.00 10 1024.1
20260901023911 56 0.0 0.0 0.00 0.00 0.00 10 1024.1
20260901023412 56 0.0 0.0 0.00 0.00 0.00 10 1024.0
20260901022912 56 0.0 0.0 0.00 0.00 0.00 10 1024.0
20260901022412 56 0.0 0.0 0.00 0.00 0.00 10 1024.1
20260901021912 56 0.0 0.0 0.00 0.00 0.00 10 1024.1
20260901021412 55 0.0 0.0 0.00 0.00 0.00 10 1024.1
20260901020912 55 0.0 0.0 0.00 0.00 0.00 10 1024.1
20260901020412 56 0.0 0.0 0.00 0.00 0.00 10 1024.0
20260901015912 56 0.0 0.0 0.00 0.00 0.00 10 1024.0
20260901015412 56 0.0 0.0 0.00 0.00 0.00 10 1023.9
20260901014912 56 0.0 0.0 0.00 0.00 0.00 10 1023.9
20260901014413 56 0.0 0.0 0.00 0.00 0.00 10 1023.9
20260901013912 56 0.0 0.0 0.00 0.00 0.00 10 1023.8
20260901013411 56 0.0 0.0 0.00 0.00 0.00 10 1023.8
20260901012411 56 0.0 0.0 0.00 0.00 0.00 10 1023.8
20260901011912 57 0.0 0.0 0.00 0.00 0.00 10 1023.8
20260901011412 57 0.0 0.0 0.00 0.00 0.00 10 1023.8
20260901010912 57 0.0 0.0 0.00 0.00 0.00 10 1023.8
20260901010411 57 0.0 0.0 0.00 0.00 0.00 10 1023.8
20260901005912 57 0.0 0.0 0.00 0.00 0.00 10 1023.8
20260901005412 57 0.0 0.0 0.00 0.00 0.00 10 1023.8
20260901004913 57 0.0 0.0 0.00 0.00 0.00 10 1023.8
20260901004412 57 0.0 0.0 0.00 0.00 0.00 10 1023.9
20260901003912 57 0.0 0.0 0.00 0.00 0.00 10 1023.9
20260901003411 57 0.0 0.0 0.00 0.00 0.00 10 1023.8
20260901002412 57 0.0 0.0 0.00 0.00 0.00 10 1023.8
20260901001913 57 0.0 0.0 0.00 0.00 0.00 10 1023.8
20260901001411 57 0.0 0.0 0.00 0.00 0.00 10 1023.8
20260901000911 57 0.0 0.0 0.00 0.00 0.00 10 1023.8
20260831235912 57 0.0 0.0 0.00 0.00 0.00 10 1023.8
20260831235412 57 0.0 0.0 0.00 0.00 0.00 10 1023.7
20260831234912 57 0.0 0.0 0.00 0.00 0.00 10 1023.7
20260831234411 57 0.0 0.0 0.00 0.00 0.00 10 1023.8
20260831233911 57 0.0 0.0 0.00 0.00 0.00 10 1023.8
20260831233412 57 0.0 0.0 0.00 0.00 0.00 10 1023.8
20260831232912 58 0.0 0.0 0.00 0.00 0.00 10 1023.8
20260831232412 58 0.0 0.0 0.00 0.00 0.00 10 1023.9
20260831231912 58 0.0 0.0 0.00 0.00 0.00 10 1023.8
20260831231412 58 0.0 0.0 0.00 0.00 0.00 10 1023.8
20260831230912 58 0.0 0.0 0.00 0.00 0.00 10 1021.7
20260831230412 58 0.0 0.0 0.00 0.00 0.00 10 1023.8
20260831225912 58 0.0 0.0 0.00 0.00 0.00 10 1023.7
20260831225413 59 0.0 0.0 0.00 0.00 0.00 10 1023.8
20260831224912 58 0.0 0.0 0.00 0.00 0.00 10 1023.8
20260831224412 58 0.0 0.0 0.00 0.00 0.00 10 1023.8
20260831223912 58 0.0 0.0 0.00 0.00 0.00 10 1023.8
20260831223412 59 0.0 0.0 0.00 0.00 0.00 10 1023.7
20260831222912 59 0.0 0.0 0.00 0.00 0.00 10 1023.7
20260831222411 59 0.0 0.0 0.00 0.00 0.00 10 1023.8
20260831221412 59 0.0 0.0 0.00 0.00 0.00 10 1023.7
20260831220912 59 0.0 0.0 0.00 0.00 0.00 10 1023.7
20260831220411 59 0.0 0.0 0.00 0.00 0.00 10 1023.7
20260831215911 60 0.0 0.0 0.00 0.00 0.00 10 1023.6
20260831215412 60 0.0 0.0 0.00 0.00 0.00 10 1023.5
20260831214912 60 0.0 0.0 0.00 0.00 0.00 10 1023.6
20260831214412 60 0.0 0.0 0.00 0.00 0.00 10 1023.5
20260831213911 60 0.0 0.0 0.00 0.00 0.00 10 1023.5
20260831212412 60 0.0 0.0 0.00 0.00 0.00 10 1023.5
20260831211911 60 0.0 0.0 0.00 0.00 0.00 10 1023.5
20260831211411 60 0.0 0.0 0.00 0.00 0.00 10 1023.5
20260831210911 60 0.0 0.0 0.00 0.00 0.00 10 1023.5
20260831210412 60 0.0 0.0 0.00 0.00 0.00 10 1023.4
20260831205911 60 0.0 0.0 0.00 0.00 0.00 10 1023.4
20260831205412 60 0.0 0.0 0.00 0.00 0.00 10 1023.4
20260831204912 60 0.0 0.0 0.00 0.00 0.00 10 1023.3
20260831204412 61 0.0 0.0 0.00 0.00 0.00 10 1023.2
20260831203911 61 0.0 0.0 0.00 0.00 0.00 10 1023.3
20260831203411 61 0.0 0.0 0.00 0.00 0.00 10 1023.1
20260831202412 61 0.0 0.0 0.00 0.00 0.00 10 1023.1
20260831201912 61 0.0 0.0 0.00 0.00 0.00 10 1023.1
20260831201412 61 0.0 0.0 0.00 0.00 0.00 10 1023.2
20260831200912 61 0.0 0.0 0.00 0.00 0.00 10 1023.1
20260831200412 61 0.0 0.0 0.00 0.00 0.00 10 1023.0
20260831195912 61 0.0 0.0 0.00 0.00 0.00 10 1022.9
20260831195411 62 0.0 0.0 0.00 0.00 0.00 10 1022.9
20260831194913 62 0.0 0.0 0.00 0.00 0.00 10 1022.9
20260831194412 62 0.0 0.0 0.00 0.00 0.00 10 1022.8
20260831193412 62 0.0 0.0 0.00 0.00 0.00 10 1022.7
20260831192911 63 0.0 0.0 0.00 0.00 0.00 10 1022.5
20260831191912 63 0.0 0.0 0.00 0.00 0.00 10 1022.4
20260831191412 63 0.0 0.0 0.00 0.00 0.00 10 1022.3
20260831190912 64 0.0 0.0 0.00 0.00 0.00 10 1022.3